Погода в Куриловке

Украина / Сумская область     51°04′18″N   33°23′12″E
темп.,
°C
ветер,
м/с
пор.,
м/с
влажн.,
%
обл.,
%
осадки,
мм/ч
давл.,
гПа
погр.,
м
18 апреля, вс
вс1800:00+7зюз3362100 0.0 101849
03:00+6юз2485100 0.0 1018130
06:00+5юз2592100 0.1 1017189
09:00+5зюз2292100 1.9 1017805
12:00+4ююз1396100 3.9 1017706
15:00+4в2294100 7.0 1017611
18:00+5св2495100 0.1 1018435
21:00+5ссв139076 0.2 1019111
19 апреля, пн
пн1900:00+3св33925 0.0 101951
03:00+3ссв22925 0.0 101912
06:00+2сз33955 0.0 101949
09:00+7с34825 0.0 1018356
12:00+11с346459 0.1 10181252
15:00+12ссв555796 0.3 10171609
18:00+11св456389 0.1 10161177
21:00+8св3684100 0.3 1017240
20 апреля, вт
вт2000:00+8св5890100 0.3 1016304
03:00+5ссв599752 0.4 1014278
06:00+6ссв5994100 0.0 1013303
09:00+7св588899 0.0 1012369
12:00+12всв5660100 0.0 10091387
15:00+12св6864100 0.7 10061335
18:00+10ссв61076100 0.3 1003918
21:00+8ссв71288100 0.6 10021025
21 апреля, ср
ср2100:00+7ссз61089100 0.5 10021081
03:00+6сз71192100 0.6 1004784
06:00+5зсз61191100 0.1 1007704
09:00+6з6985100 0.1 1010781
12:00+8з687097 0.2 10111181
15:00+9з6865100 0.4 10131392
18:00+9з4658100 0.1 1014796
21:00+7ююз37755 0.1 1016133
22 апреля, чт
чт2200:00+5ю4108232 0.0 1017190
03:00+6ю5137599 0.0 1017312
06:00+6ю41180100 0.1 1017276
09:00+8ю588298 0.2 1018342
12:00+13ююз686664 1.1 10171051
15:00+15ююз675733 1.8 10161529
18:00+14ююз586618 1.4 1016922
21:00+10ю5118142 1.9 1017241